Flag for Kuwait Weather past 2 weeks in Kuwait City, Kuwait

Now
111 °F

Sunny.


Feels Like: 106 °F
Forecast: 95 / 108 °F
Wind: 12 mph from Southeast

Location: Kuwait International Airport

Current Time: Aug 31, 2015 at 5:17:47 PM

Latest Report: Aug 31, 2015 at 5:00 PM


Visibility: 10 mi

Pressure: 29.56 "Hg

Humidity: 11%

Dew point: 45 °F

Historic Weather in Kuwait City — Graph

°F

Kuwait City temperature yesterday

Maximum temperature yesterday: 118 °F (at 1:00 PM)
Minimum temperature yesterday: 95 °F (at 5:00 AM)
Average temperature yesterday: 107 °F

Past Weeks' High & Low Weather Summary

 TemperatureHumidityPressure
High120 °F (Aug 18, 1:00 PM)71% (Aug 22, 2:30 AM)29.68 "Hg (Aug 22, 2:30 AM)
Low84 °F (Aug 22, 5:30 AM)5% (Aug 22, 2:00 PM)29.47 "Hg (Aug 22, 3:00 PM)
Average104 °F21%29.57 "Hg
* Reported Aug 16 3:00 PM — Aug 31 3:59 PM, Kuwait City, Weather by CustomWeather, © 2015

Note: Actual official high and low records may vary slightly from our data, if they occured in-between our weather recording intervals... More about our weather records

Advertising

Kuwait City weather history for previous 24 hours

 ConditionsComfort  
Time TempWeatherWind HumidityBarometerVisibility
3:59 PM
Mon, Aug 31
115 °FSunny.8 mph10%29.59 "Hg10 mi
3:30 PM115 °FSunny.12 mph10%29.59 "Hg10 mi
3:00 PM117 °FSunny.5 mph12%29.59 "Hg10 mi
2:30 PM117 °FSunny.6 mph12%29.59 "Hg10 mi
2:00 PM118 °FSunny.6 mph9%29.59 "Hg10 mi
1:30 PM120 °FSunny.5 mph7%29.59 "Hg10 mi
1:00 PM118 °FSunny.6 mph7%29.59 "Hg10 mi
12:30 PM118 °FSunny.7 mph7%29.62 "Hg10 mi
12:00 PM118 °FClear.5 mph7%29.62 "Hg5 mi
11:30 AM117 °FClear.6 mph8%29.62 "Hg5 mi
11:00 AM117 °FClear.5 mph8%29.62 "Hg5 mi
10:30 AM115 °FClear.3 mph9%29.65 "Hg5 mi
10:00 AM113 °FClear.6 mph9%29.65 "Hg5 mi
9:30 AM111 °FClear.3 mph10%29.65 "Hg5 mi
9:00 AM109 °FClear.No wind11%29.65 "Hg4 mi
8:30 AM106 °FSunny.No wind13%29.65 "Hg3 mi
8:00 AM102 °FSunny.No wind13%29.65 "Hg3 mi
7:30 AM99 °FSunny.3 mph15%29.65 "Hg2 mi
7:00 AM95 °FSunny.3 mph16%29.65 "Hg4 mi
6:30 AM91 °FClear.3 mph18%29.65 "Hg4 mi
6:00 AM90 °FClear.5 mph18%29.65 "Hg4 mi
5:30 AM86 °FClear.3 mph20%29.65 "Hg4 mi
5:00 AM86 °FClear.3 mph20%29.62 "Hg10 mi
4:30 AM90 °FClear.3 mph20%29.62 "Hg10 mi
4:00 AM88 °FClear.6 mph21%29.62 "Hg10 mi
3:30 AM90 °FClear.5 mph20%29.62 "Hg10 mi
3:00 AM91 °FClear.7 mph18%29.62 "Hg10 mi
2:30 AM93 °FClear.6 mph19%29.62 "Hg10 mi
2:00 AM91 °FClear.No wind20%29.62 "Hg10 mi
1:30 AM95 °FClear.5 mph18%29.62 "Hg10 mi
1:00 AM99 °FClear.8 mph16%29.62 "Hg10 mi
12:30 AM95 °FClear.No wind18%29.62 "Hg10 mi
12:00 AM93 °FClear.No wind19%29.62 "Hg10 mi
11:30 PM
Sun, Aug 30
95 °FClear.3 mph18%29.62 "Hg10 mi
10:30 PM97 °FClear.6 mph16%29.62 "Hg10 mi
10:00 PM97 °FClear.5 mph14%29.62 "Hg10 mi
9:30 PM99 °FClear.No wind13%29.62 "Hg10 mi
9:00 PM104 °FClear.No wind12%29.59 "Hg10 mi
8:30 PM106 °FClear.No wind13%29.59 "Hg10 mi
8:00 PM106 °FClear.No wind12%29.59 "Hg10 mi
7:30 PM108 °FClear.2 mph12%29.59 "Hg10 mi
7:00 PM109 °FClear.6 mph11%29.59 "Hg10 mi
6:30 PM111 °FClear.3 mph11%29.56 "Hg10 mi
6:00 PM113 °FSunny.6 mph11%29.56 "Hg10 mi
5:30 PM115 °FSunny.3 mph10%29.56 "Hg10 mi
5:00 PM115 °FSunny.3 mph10%29.56 "Hg10 mi
Weather by CustomWeather, © 2015

See weather overviewHow to use our weather pages